Scott Municipal (SCX)

 

Airport Diagram
No Airport Diagram Available
Current Weather/Forecast (VFR Conditions)
METAR KSCX 182355Z AUTO 01005KT 10SM OVC085 14/02 A2987 RMK A01
TAF

Airport Information

All Charts
General
Chart Name View
TAKEOFF MINIMUMS
TAKEOFF MINIMUMS

Approaches
Chart Name Download
RNAV (GPS) RWY 05
RNAV (GPS) RWY 23
VOR/DME-A
RNAV (GPS) RWY 05
RNAV (GPS) RWY 23
VOR/DME-A


Airport Statistics
Departures Arrivals Local
All Collected Stats since June 2016: 8 5 0
2021 Stats: 2 1 0
April Stats: 0 0 0

Inbound Traffic (Arrivals) - 0

No inbound traffic.


Outbound Traffic (Departures) - 0

No outbound traffic.


Local Traffic (Pattern) - 0

No local traffic.